Regional Weather Roundup
Issued by NWS Little Rock, AR

Home | Current Version | Previous Version | Graphics & Text | Print | Product List | Glossary On
Versions: 1 2 3 4 5 6 7 8 9 10 11 12 13 14 15 16 17 18 19 20 21 22 23 24 25 26 27 28 29 30 31 32 33 34 35 36 37 38 39 40 41 42 43 44 45 46 47 48 49 50
000
ASUS44 KLZK 240405
RWRLZK

WEATHER ROUNDUP FOR ARKANSAS
NATIONAL WEATHER SERVICE LITTLE ROCK AR
1100 PM CDT WED JUL 23 2014

NOTE: "FAIR" INDICATES FEW OR NO CLOUDS BELOW 12,000 FEET WITH NO
SIGNIFICANT WEATHER AND/OR OBSTRUCTIONS TO VISIBILITY.

ARZ001-003-010-029-240500-
NORTHWEST ARKANSAS

CITY           SKY/WX    TMP DP  RH WIND       PRES   REMARKS
FAYETTEVILLE   CLEAR     68  66  93 CALM      30.09F
FORT SMITH     PTCLDY    71  68  90 W3        30.05F
BENTONVILLE    CLEAR     72  64  78 W3        30.11S
ROGERS         CLEAR     72  66  81 W7        30.11S
SILOAM SPGS    CLEAR     70  63  78 NW5       30.11F
HIGHFILL       CLEAR     70  67  90 W6        30.10S
$$

ARZ004-005-016-240500-
NORTH CENTRAL ARKANSAS

CITY           SKY/WX    TMP DP  RH WIND       PRES   REMARKS
BATESVILLE     CLEAR     68  68 100 CALM      30.03R
FLIPPIN        CLEAR     70  70 100 CALM      30.07S
MTN HOME       CLEAR     68  68 100 CALM      30.06S
$$

ARZ040-041-240500-
WEST CENTRAL ARKANSAS

CITY           SKY/WX    TMP DP  RH WIND       PRES   REMARKS
MENA           MOCLDY    70  68  94 CALM      30.05F
MOUNT IDA      FOG       68  67  96 CALM      30.00F VSB 1
$$

ARZ009-017-025-026-028-240500-
NORTHEAST ARKANSAS

CITY           SKY/WX    TMP DP  RH WIND       PRES   REMARKS
CORNING        CLOUDY    73  73 100 N3        30.05R
JONESBORO      CLOUDY    71  68  90 CALM      30.04S
NEWPORT        PTCLDY    70  69  96 NE5       30.04R
WALNUT RIDGE   CLEAR     72  66  83 NE3       30.03S
BLYTHEVILLE    MOCLDY    72  70  93 NW7       30.03F
$$

ARZ022-023-033-042-044-240500-
CENTRAL ARKANSAS

CITY           SKY/WX    TMP DP  RH WIND       PRES   REMARKS
LITTLE ROCK    MOCLDY    71  68  90 NW5       30.00S
N LITTLE ROCK  MOCLDY    70  70  99 NW8       30.00S
HOT SPRINGS    MOCLDY    71  68  90 NW3       30.01S
RUSSELLVILLE   PTCLDY    71  69  93 NW5       30.02F
CLINTON        FAIR      70  70 100 CALM      30.03S FOG
$$

ARZ036-240500-
EAST ARKANSAS

CITY           SKY/WX    TMP DP  RH WIND       PRES   REMARKS
WEST MEMPHIS   PTCLDY    70  69  97 N8        30.02S
$$

ARZ050-053-066-070-073-240500-
SOUTHWEST ARKANSAS

CITY           SKY/WX    TMP DP  RH WIND       PRES   REMARKS
ARKADELPHIA    FAIR      71  71 100 CALM      30.00R
CAMDEN         CLOUDY    70  66  88 W3        29.98S
TEXARKANA      MOCLDY    70  69  97 SW10      29.96F
EL DORADO      CLOUDY    69  69 100 SW7       29.98F
$$

ARZ056-057-069-240500-
SOUTHEAST ARKANSAS

CITY           SKY/WX    TMP DP  RH WIND       PRES   REMARKS
PINE BLUFF     CLOUDY    71  69  93 N7        29.99F
STUTTGART      MOCLDY    72  68  88 N6        30.00F
MONTICELLO     CLOUDY    72  68  87 CALM      30.00R

$$





USA.gov is the U.S. government's official web portal to all federal, state and local government web resources and services.